Flag for Canada Weather past 2 weeks in Belleville, Ontario, Canada

Now
43 °F

Clear.


Feels Like: 37 °F
Forecast: 29 / 55 °F
Wind: 10 mph from Northwest

Location: Trenton


UV Index: 5 (Moderate)

Visibility: 15 mi


Pressure: 29.99 "Hg

Humidity: 34%

Dew point: 16 °F

Location of BellevilleLocation

Historic Weather in Belleville

°F

Belleville temperature yesterday

Maximum temperature yesterday: 52 °F (at 5:00 PM)
Minimum temperature yesterday: 39 °F (at 7:00 AM)
Average temperature yesterday: 44 °F

Past Weeks' High & Low Weather Summary

 TemperatureHumidityPressure
High68 °F (Apr 14, 11:00 AM)100% (Apr 11, 2:00 AM)30.66 "Hg (Apr 11, 2:00 AM)
Low21 °F (Apr 16, 6:00 AM)27% (Apr 23, 8:00 PM)29.51 "Hg (Apr 22, 1:00 PM)
Average44 °F69%30.02 "Hg
* Reported Apr 8 10:00 PM — Apr 23 10:00 PM, Belleville, Weather by CustomWeather, © 2014

Note: Actual official high and low records may vary slightly from our data, if they occured in-between our weather recording intervals... More about our weather records

Advertising

Historic Weather Conditions — Data for Previous 24 hours

 ConditionsComfort  
Time TempWeatherWind HumidityBarometerVisibility
10:00 PM
Apr 23
45 °FClear.9 mph31%29.97 "Hg15 mi
9:00 PM46 °FSunny.8 mph29%29.94 "Hg15 mi
8:00 PM48 °FPassing clouds.13 mph27%29.90 "Hg15 mi
7:00 PM52 °FPassing clouds.14 mph28%29.87 "Hg15 mi
6:00 PM52 °FPassing clouds.13 mph32%29.87 "Hg15 mi
5:00 PM52 °FPassing clouds.17 mph35%29.87 "Hg15 mi
4:00 PM50 °FScattered clouds.15 mph43%29.85 "Hg15 mi
3:00 PM48 °FPartly sunny.14 mph46%29.85 "Hg15 mi
2:00 PM46 °FOvercast.14 mph50%29.85 "Hg15 mi
1:00 PM45 °FOvercast.14 mph57%29.84 "Hg15 mi
12:00 PM43 °FOvercast.9 mph61%29.84 "Hg15 mi
11:00 AM43 °FOvercast.14 mph61%29.84 "Hg15 mi
10:00 AM43 °FPartly sunny.16 mph71%29.82 "Hg15 mi
9:00 AM41 °FBroken clouds.14 mph70%29.81 "Hg15 mi
8:00 AM39 °FBroken clouds.13 mph75%29.79 "Hg15 mi
7:00 AM39 °FPartly cloudy.13 mph81%29.76 "Hg15 mi
6:00 AM41 °FOvercast.10 mph81%29.72 "Hg15 mi
5:00 AM43 °FSprinkles. Mostly cloudy.13 mph87%29.68 "Hg15 mi
4:00 AM43 °FMostly cloudy.14 mph93%29.65 "Hg15 mi
3:00 AM41 °FSprinkles. Mostly cloudy.12 mph93%29.63 "Hg15 mi
2:00 AM41 °FSprinkles. Overcast.12 mph93%29.63 "Hg15 mi
1:00 AM41 °FSprinkles. Mostly cloudy.8 mph93%29.62 "Hg12 mi
12:00 AM41 °FSprinkles. Low clouds.7 mph100%29.62 "Hg9 mi
Weather by CustomWeather, © 2014

See weather overview